Regional Weather Roundup
Issued by NWS

Home | Current Version | Previous Version | Text Only | Print | Product List | Glossary Off
Versions: 1 2 3 4 5 6 7 8 9 10 11 12 13 14 15 16 17 18 19 20 21 22 23 24 25 26 27 28 29 30 31 32 33 34 35 36 37 38 39 40 41 42 43 44 45 46 47 48 49 50

000
ASUS44 KMEG 010710
RWRTN
TENNESSEE HOURLY STATE WEATHER ROUNDUP
NATIONAL WEATHER SERVICE MEMPHIS TN
200 AM CDT SAT AUG 01 2015

TNZ002-004-019-021-049-052-054-088>092-010800-
WEST TENNESSEE

CITY           SKY/WX    TMP DP  RH WIND       PRES   REMARKS
MEMPHIS INTL   MOCLDY    78  65  63 CALM      30.03F
NWS MEMPHIS      N/A     71 N/A N/A MISG        N/A
JACKSON        CLEAR     69  66  90 CALM      30.04F
DYERSBURG        N/A    N/A N/A N/A MISG        N/A
PARIS            N/A     64  63  94 CALM      30.05F VSB 1
LEXINGTON      CLEAR     66  66 100 CALM      30.03F
$$

TNZ008-025-027-028-033-062-065-066-010800-
NORTH MIDDLE TENNESSEE

CITY           SKY/WX    TMP DP  RH WIND       PRES   REMARKS
NASHVILLE      CLEAR     70  64  81 CALM      30.03F
CLARKSVILLE    CLEAR     68  66  93 CALM      30.04F
SMYRNA         CLEAR     66  64  93 CALM      30.04F
CROSSVILLE     CLEAR     63  59  87 CALM      30.09F
$$

TNZ061-075-076-078-094-096-097-010800-
SOUTH MIDDLE TENNESSEE

CITY           SKY/WX    TMP DP  RH WIND       PRES   REMARKS
FAYETTEVILLE   CLEAR     66  59  77 N5        30.03F
TULLAHOMA      CLEAR     61  57  88 CALM      30.05F
WINCHESTER     CLEAR     61  59  94 CALM      30.04F
MCMINNVILLE    CLEAR     63  63 100 CALM      30.05F
COLUMBIA       CLEAR     64  64 100 CALM      30.02F
SHELBYVILLE    CLEAR     63  63 100 CALM      30.05S
$$

TNZ017-018-042-046-047-010800-
NORTHEAST TENNESSEE

CITY           SKY/WX    TMP DP  RH WIND       PRES   REMARKS
TRI CITIES     CLEAR     60  58  92 CALM      30.06S
ELIZABETHTON   SUNNY     57  55  94 CALM      30.07S
$$

TNZ012-013-036-069-073-074-010800-
CENTRAL EAST TENNESSEE

CITY           SKY/WX    TMP DP  RH WIND       PRES   REMARKS
KNOXVILLE      CLEAR     66  62  87 CALM      30.03F
OAK RIDGE      CLEAR     66  62  87 CALM      30.05F
GATLINBURG     SUNNY     63  59  88 CALM      30.04S
MORRISTOWN     SUNNY     66  63  88 CALM      30.06S
$$

TNZ083-085-099-010800-
SOUTHEAST TENNESSEE

CITY           SKY/WX    TMP DP  RH WIND       PRES   REMARKS
CHATTANOOGA    CLEAR     68  63  84 CALM      30.00F
$$

SKY/WX REPORTED AS FAIR MEANS FEW OR NO CLOUDS BELOW
12 THOUSAND FEET.



USA.gov is the U.S. government's official web portal to all federal, state and local government web resources and services.